Location: Anglesey
(53.1800°N, 4.2200°W)
Time: 21:00:12
(UTC+00:00)

Envisat - Pass Details

Date: 15 October 2017
Orbit: 764 x 766 km, 98.2° (Epoch: 10 December)

Event Time Altitude Azimuth Distance (km) Brightness Sun altitude
Exits shadow 21:22:34 35° 208° (SSW) 1,223 4.0 -27.5°
Maximum altitude 21:24:19 50° 261° (W) 972 3.7 -27.8°
Drops below altitude 10° 21:29:18 10° 337° (NNW) 2,319 6.1 -28.5°
Sets 21:31:41 0° 342° (NNW) 3,250 6.8 -28.8°
